CZ-3B R/B (43604 NORAD) Tracking and Keplerian Element Data

This shows tracking and keplerian element data for the satellite.

Feedback or suggestion? Click here.




ElementValue
Catalog43604
NameCZ-3B R/B
Epoch Orbit114
Epoch Day263.09342705
Epoch Year2018
RAAN263.8469
Inclination55.0066
Eccentricity0.5831009
Argument of Perigee178.7042
Mean Anonmoly184.1416
Mean Motion4.40206444
Decay Rate0.00052693
L11 43604U 18067C 18263.09342705 .00052693 -67553-7 75699-3 0 9997
L22 43604 55.0066 263.8469 5831009 178.7042 184.1416 4.40206444 1143

Live tracking and technical data element details for CZ-3B R/B (NORAD 43604). CZ-3B R/B can be tracked NOW for your location showing map with azimuth and elevation plus other details from your city location.

Track the satellite on the map from your city or location and see movement details for azimuth, elevation, latitude, longitude, range, height, and movement on the map or in text.







IsCatalogInMostPopularTable: catalog: 43604, numindb: 45
Update: records affected: 1



GetName: 43604 CZ-3B R/B

Hit Count: updated at: Tue, 20 Nov 2018 11:58:29 GMT